Location: ????????
(55.6333°N, 37.7000°E)
Time: 03:34:40
(UTC+00:00)

Cosmos 405 Rocket - Pass Details

Date: 19 May 2025
Orbit: 414 x 448 km, 81.2° (Epoch: 14 June)

Event Time Altitude Azimuth Distance (km) Brightness Sun altitude
Rises 20:00:36 0° 345° (NNW) 2,470 8.2 -12.3°
Reaches altitude 10° 20:02:42 10° 345° (NNW) 1,588 6.7 -12.4°
Maximum altitude 20:06:10 86° 258° (WSW) 453 2.3 -12.5°
Enters shadow 20:08:14 22° 169° (S) 1,011 3.5 -12.6°
